#timestamp,LO_Frequency,Hit,StdDev 
1564711215.7,286046992.3,N
1564711235.6,286046994.0,N
1564711255.4,286046991.9,N
1564711275.2,286046991.7,N
1564711295.1,286046989.0,N
1564711296.0,286046989.0,N
1564711315.8,286046989.5,N
1564711335.7,286046987.6,N
1564711355.5,286046989.3,N
1564711375.3,286046989.7,N
1564711395.2,286046989.4,N
1564711415.0,286046989.9,N
1564711415.9,286046989.9,N
1564711435.8,286046990.3,N
1564711455.6,286046990.1,N
1564711475.4,286046990.9,N
1564711495.3,286046993.0,N
1564711515.1,286046992.4,N
1564711535.8,286046993.3,N
1564711555.7,286046997.6,N
1564711575.5,286046996.5,N
1564711595.3,286046999.0,N
1564711615.2,286046998.7,N
1564711635.0,286046998.2,N
1564711635.9,286046998.2,N
1564711655.8,286046999.1,N
1564711675.6,286046996.7,N
1564711695.4,286046995.4,N
1564711715.3,286046995.5,N
1564711735.1,286046995.5,N
1564711755.9,286046995.9,N
1564711775.7,286046994.0,N
1564711795.6,286046995.4,N
1564711815.4,286046999.4,N
1564711835.2,286046999.8,N
1564711855.1,286047003.7,N
1564711856.0,286047003.7,N
1564711875.8,286047007.5,N
1564711895.6,286047007.1,N
1564711915.5,286047010.8,N
1564711935.3,286047011.9,N
1564711955.2,286047010.4,N
1564711975.9,286047008.9,N
1564711995.7,286047009.3,N
1564712015.6,286047008.5,N
1564712035.4,286047006.2,N
1564712055.2,286047004.6,N
1564712075.1,286047006.7,N
1564712076.0,286047006.7,N
1564712095.8,286047008.6,N
1564712115.7,286047006.5,N
1564712135.5,286047006.7,N
1564712155.3,286047007.0,N
1564712175.2,286047009.0,N
1564712195.0,286047010.3,N
1564712195.9,286047010.3,N
1564712215.8,286047009.6,N
1564712235.6,286047009.3,N
1564712255.4,286047013.5,N
1564712275.3,286047015.3,N
1564712295.1,286047018.8,Y
1564712315.8,286047010.4,P
1564712335.7,286047008.0,P
1564712355.5,286047011.8,P
1564712375.4,286047012.6,Y
1564712395.2,286047006.7,P
1564712415.0,286047006.9,P
1564712415.9,286047006.9,P
1564712435.8,286047008.8,Y
1564712455.6,286047002.6,P
1564712475.4,286047003.7,N
1564712495.3,286047003.0,N
1564712515.1,286047006.0,Y
1564712535.9,286047000.6,P
1564712555.7,286047000.9,N
1564712575.5,286047001.2,N
1564712595.4,286046998.4,N
1564712615.2,286047000.8,N
1564712635.0,286047001.7,N
1564712636.0,286047001.7,N
1564712655.8,286047003.8,N
1564712675.6,286047006.0,Y
1564712695.5,286047003.1,P
1564712715.3,286047004.7,P
1564712735.1,286047003.0,N
1564712755.9,286047005.9,Y
1564712775.7,286047000.8,P
1564712795.6,286046999.2,N
1564712815.4,286046995.3,N
1564712835.2,286046994.9,N
1564712855.1,286047000.6,N
1564712856.0,286047000.6,N
1564712875.8,286047000.6,N
1564712895.6,286047001.4,N
1564712915.5,286047003.4,N
1564712935.3,286047004.6,N
1564712955.2,286047006.2,N
1564712975.9,286047006.1,N
1564712995.7,286047008.4,N
1564713015.6,286047010.7,N
1564713035.4,286047006.3,N
1564713055.2,286047005.4,N
1564713075.1,286047004.7,N
1564713076.0,286047004.7,N
1564713095.8,286047005.1,N
1564713115.7,286047004.9,N
1564713135.5,286047001.7,N
1564713155.4,286047002.1,N
1564713175.2,286046996.6,N
1564713195.0,286046999.1,N
1564713195.9,286046999.1,N
1564713215.8,286046999.1,N
1564713235.6,286046997.2,N
1564713285.5,286046995.8,E
1564713295.4,286046998.6,N
1564713315.2,286047003.2,P
1564713335.1,286047003.7,N
1564713336.0,286047003.7,N
1564713355.8,286047005.8,N
1564713375.7,286047004.9,N
1564713395.5,286047006.8,N
1564713415.3,286047009.9,Y
1564713435.2,286047007.1,P
1564713455.0,286047006.4,P
1564713455.9,286047006.4,P
1564713475.8,286047006.2,Y
1564713495.6,286047004.2,P
1564713515.4,286047005.2,P
1564713535.3,286047005.7,P
1564713555.1,286047008.8,Y
1564713575.8,286047002.3,P
1564713595.7,286047001.7,N
1564713615.5,286047005.9,P
1564713635.4,286047004.9,N
1564713655.2,286047006.1,Y
1564713675.0,286047002.5,P
1564713675.9,286047002.5,P
1564713695.8,286047001.0,N
1564713715.6,286046999.0,N
1564713735.5,286046997.1,N
1564713755.3,286046997.6,N
1564713775.1,286046992.2,Y
1564713795.9,286046991.6,P
1564713815.7,286046990.0,N
1564713835.5,286046986.4,N
1564713855.4,286046982.7,Y
1564713875.2,286046991.0,P
1564713895.1,286046987.4,P
1564713896.0,286046987.4,P
1564713915.8,286046987.9,Y
1564713935.6,286046993.5,P
1564713955.5,286046992.9,P
1564713975.3,286046988.6,P
1564713995.2,286046989.4,Y
1564714015.9,286046995.0,P
1564714035.7,286046995.1,N
1564714055.6,286046996.0,N
1564714075.4,286046992.8,Y
1564714095.2,286046997.3,P
1564714115.1,286046996.3,N
1564714116.0,286046996.3,N
1564714135.8,286046993.0,Y
1564714155.7,286046997.1,P
1564714175.5,286046994.9,P
1564714195.3,286046999.6,N
1564714215.2,286046999.3,N
1564714235.0,286047002.4,N
1564714235.9,286047002.4,N
1564714255.8,286047004.1,N
1564714275.6,286047002.0,N
1564714295.4,286047002.3,N
1564714315.3,286047001.4,N
1564714335.1,286047002.7,N
1564714355.8,286047000.9,N
1564714375.7,286047001.7,N
1564714395.5,286047003.0,N
1564714415.3,286047004.8,N
1564714435.2,286047004.5,N
1564714455.0,286047007.3,N
1564714455.9,286047007.3,N
1564714475.8,286047006.3,N
1564714495.6,286047009.0,N
1564714515.4,286047012.4,Y
1564714535.3,286047009.0,P
1564714555.1,286047010.6,P
1564714575.9,286047012.0,P
1564714595.7,286047011.2,Y
1564714615.5,286047005.6,P
1564714635.4,286047003.1,N
1564714655.2,286047001.3,N
1564714675.0,286046999.9,N
1564714675.9,286046999.9,N
1564714695.8,286047000.8,N
1564714715.6,286046998.7,N
1564714735.5,286047001.1,N
1564714755.3,286047002.3,N
1564714775.1,286047002.8,N
1564714795.9,286046998.9,N
